THOR ABLESTAR DEB, 645

Orbit data source: Space-Track

THOR ABLESTAR DEB, 645 is space debris in LEO originally from a launch on Thu, 29 Jun 1961 UTC launched from the Air Force Eastern Test Range (AFETR). Debris objects in space refer to the collection of defunct objects orbiting the Earth. Examples of debris include non-operational satellites, rocket bodies, and fragments generated from explosions, collisions, or faulty payload assembly.

Loading next visibility...
Identifier
645, 1961-015GW
Orbit
LEO
Last TLE update
1 day ago
Origin
Manufacturer
Unknown
Mission
Spacecraft
Bus & Motor
Unknown
Mass
Unknown
Launch date (UTC)
1961-06-29 (64 years ago)
Launch vehicle
Unknown
Launch site
Air Force Eastern Test Range (AFETR)
Object type
Payload
Rocket body
Debris
Shape & HBR
Unknown
Radar Cross Section
Small (<0.1 m²)

Expand to show TLE details & history

TLE from 1 day ago
0 THOR ABLESTAR DEB
1 00645U 61015GW  25128.10060211  .00000369  00000-0  89280-3 0  9995
2 00645  66.5894   6.1399 0411622 359.1698 152.1219 13.04672923 26961
Epoch: 2025-05-08T02:24Z
Definitive object data (Epoch: 2025-05-08T02:24:52.022Z)
Latitude
24.29575°
Longitude
-87.46858°
Altitude
1,525.896 km
Speed
6.973 km/s
True Right ascension
11h 39m 41s
True Declination
24° 10' 46"
Sunlit
Object was in daylight at TLE epoch
Visualization TLE readout
Latitude
-51.11163°
Longitude
-46.45364°
Altitude
1,413.429 km
Speed
7.082 km/s
Apparent Right ascension
08h 31m 20s
Apparent Declination
-88° 21' 49"
Sunlit
Object is in full shadow
Visualization observer readout
Local Sidereal Time
14:37:16
Azimuth
182.134° SSW
Elevation
-39.939°
Doppler factor
1
Orbital elements
Apogee altitude
1,555.991 km
Perigee altitude
928.642 km
Semi-major axis
7,620.453 km
Eccentricity
0.0411622
Inclination
66.5894°
RAAN
6.1399°
Arg. of periapsis
359.1698°
True anomaly
154.23088°
Mean anomaly
152.1219°
Eccentric anomaly
153.18578°
Mean motion
3.26266 °/min
BSTAR
0.0008928
Orbital period
110.34 mins
Loading maneuver chart data...
Loading SW <> Apogee altitude chart data...

THOR ABLESTAR DEB Visibility forecast

Observer location: undefined°, undefined°

Span
Click to sort rows by Start time (UTC) header in descending order
Start Az.
Max El. time (UTC)
Max El. Az.
Max El.
End time (UTC)
End Az.
10 mins2025-05-09 16:23:25.926Z166.562° S2025-05-09 16:28:25.926Z98.407° ESE29.779°2025-05-09 16:33:25.926Z46.973° ENE
10 mins2025-05-09 18:17:25.926Z251.535° W2025-05-09 18:21:25.926Z311.359° NW32.701°2025-05-09 18:27:25.926Z16.64° NNE
10 mins2025-05-10 00:09:25.926Z4.82° NNE2025-05-10 00:13:25.926Z39.501° NE19.383°2025-05-10 00:19:25.926Z82.841° E
16 mins2025-05-10 02:01:25.926Z336.168° NNW2025-05-10 02:08:25.926Z59.475° ENE43.422°2025-05-10 02:17:25.926Z142.376° SSE
12 mins2025-05-10 03:56:25.926Z300.421° NW2025-05-10 04:01:25.926Z257.313° W25.569°2025-05-10 04:08:25.926Z203.573° SW
|